Starlink 3702

operational
NORAD ID: 52100 Int'l Des: 2022-029 Owner: SPXS Country: US Constellation: starlink
LEOCIRCULAR

Über Starlink 3702

Beschreibung wird geladen...

Live-Position

3D-Globus wird geladen...

Nächste Überflüge

Höhenverlauf

Altitude vs Time

uPlot chart will show altitude changes over time

Zweizeiliger Elementsatz

1 52100U 22029N 25259.11965652 .00000415 00000-0 44168-4 0 9998
2 52100 53.2183 152.7952 0001601 96.4664 263.6510 15.08840726194307
Epoch: 16. Sept. 2025 • Age: 17 hours

Aktueller Status

Höhe 553.0 km
Geschwindigkeit 7.58 km/s
Subsatellitenpunkt -38.50°S, 73.07°E
Startdatum 19. März 2022
Alter 3.4 years
Typ internet

Technische Details

Klassifizierung Payload
Masse 297.00 kg
Trockenmasse 275.00 kg
Gesamtmasse 297.00 kg
Länge 0.20 m
Durchmesser 2.80 m
Spannweite 9.00 m
Form Box + pan
Hersteller SPXS
Bus-Typ Starlink
Phasenstatus In Orbit
Besitzer/Staat SPXS/US

Große Konstellationen

Loading constellations...